GW7701 Weather Reports


Display with metric or nautical units.
time (UTC)temp
F
wind
direction
speed
MPH
gust
MPH
rain 1hr
in
rain 24hr
in
rain mn
in
humidity
%
barometer
mb
20260901110541 68 241 4.0 10.0 0.00 0.00 0.00 72 1013.6
20260901110103 68 251 4.0 10.0 0.00 0.00 0.00 73 1013.5
20260901105542 67 234 3.0 6.0 0.00 0.00 0.00 75 1013.5
20260901105041 67 238 3.0 5.0 0.00 0.00 0.00 75 1013.5
20260901104602 67 205 3.0 7.0 0.00 0.00 0.00 73 1013.2
20260901104044 67 194 4.0 9.0 0.00 0.00 0.00 73 1013.2
20260901103542 68 233 2.0 9.0 0.00 0.00 0.00 72 1013.2
20260901103058 68 254 5.0 9.0 0.00 0.00 0.00 71 1013.1
20260901102542 67 250 4.0 8.0 0.00 0.00 0.00 72 1013.2
20260901102042 67 239 3.0 8.0 0.00 0.00 0.00 72 1013.0
20260901101612 67 219 3.0 7.0 0.00 0.00 0.00 73 1013.2
20260901101041 67 233 3.0 7.0 0.00 0.00 0.00 73 1013.1
20260901100542 67 240 3.0 4.0 0.00 0.00 0.00 73 1013.1
20260901100111 67 225 2.0 4.0 0.00 0.00 0.00 72 1013.1
20260901095541 67 227 2.0 4.0 0.00 0.00 0.00 72 1013.0
20260901095042 67 224 2.0 4.0 0.00 0.00 0.00 72 1013.2
20260901094602 67 225 2.0 4.0 0.00 0.00 0.00 72 1013.2
20260901094043 67 203 2.0 6.0 0.00 0.00 0.00 71 1013.1
20260901093542 68 195 3.0 6.0 0.00 0.00 0.00 71 1013.1
20260901093106 68 213 3.0 6.0 0.00 0.00 0.00 70 1013.3
20260901092542 68 190 3.0 6.0 0.00 0.00 0.00 69 1013.2
20260901092042 68 217 3.0 6.0 0.00 0.00 0.00 68 1013.2
20260901091606 69 209 4.0 6.0 0.00 0.00 0.00 68 1013.3
20260901091042 69 223 3.0 6.0 0.00 0.00 0.00 69 1013.2
20260901090541 69 213 3.0 6.0 0.00 0.00 0.00 69 1013.2
20260901090104 69 217 3.0 5.0 0.00 0.00 0.00 69 1013.2
20260901085541 69 224 3.0 6.0 0.00 0.00 0.00 69 1013.2
20260901085041 69 226 3.0 6.0 0.00 0.00 0.00 69 1013.1
20260901084626 69 233 3.0 6.0 0.00 0.00 0.00 70 1013.2
20260901084041 68 233 2.0 6.0 0.00 0.00 0.00 71 1013.1
20260901083544 68 225 3.0 5.0 0.00 0.00 0.00 70 1013.1
20260901083102 68 219 3.0 5.0 0.00 0.00 0.00 69 1013.1
20260901082541 69 225 3.0 5.0 0.00 0.00 0.00 69 1013.0
20260901082041 68 225 3.0 6.0 0.00 0.00 0.00 70 1012.9
20260901081602 68 233 3.0 8.0 0.00 0.00 0.00 70 1013.0
20260901081041 68 241 4.0 9.0 0.00 0.00 0.00 69 1013.0
20260901080541 68 226 5.0 9.0 0.00 0.00 0.00 69 1013.1
20260901080114 68 230 4.0 7.0 0.00 0.00 0.00 70 1013.2
20260901075542 68 227 4.0 7.0 0.00 0.00 0.00 71 1013.2
20260901075042 67 265 2.0 3.0 0.00 0.00 0.00 72 1013.2
20260901074628 67 244 1.0 3.0 0.00 0.00 0.00 74 1013.2
20260901074047 67 0 0.0 2.0 0.00 0.00 0.00 73 1013.2
20260901073541 67 0 0.0 2.0 0.00 0.00 0.00 73 1013.1
20260901073105 67 0 0.0 2.0 0.00 0.00 0.00 72 1013.1
20260901072541 68 233 1.0 3.0 0.00 0.00 0.00 71 1013.1
20260901072045 68 210 1.0 3.0 0.00 0.00 0.00 70 1013.1
20260901071606 68 206 2.0 3.0 0.00 0.00 0.00 69 1013.1
20260901071041 68 231 1.0 5.0 0.00 0.00 0.00 69 1013.3
20260901070545 68 209 2.0 5.0 0.00 0.00 0.00 68 1013.2
20260901065541 68 205 2.0 4.0 0.00 0.00 0.00 68 1013.3
20260901065041 68 203 2.0 4.0 0.00 0.00 0.00 67 1013.3
20260901064559 68 196 2.0 4.0 0.00 0.00 0.00 68 1013.3
20260901064040 69 230 2.0 4.0 0.00 0.00 0.00 68 1013.4
20260901063540 69 215 2.0 4.0 0.00 0.00 0.00 68 1013.5
20260901063102 69 230 1.0 4.0 0.00 0.00 0.00 67 1013.4
20260901062542 69 198 1.0 4.0 0.00 0.00 0.00 67 1013.5
20260901062042 70 200 2.0 4.0 0.00 0.00 0.00 66 1013.5
20260901061606 70 193 2.0 4.0 0.00 0.00 0.00 65 1013.4
20260901061042 70 214 2.0 4.0 0.00 0.00 0.00 65 1013.4
20260901060542 70 194 1.0 3.0 0.00 0.00 0.00 65 1013.4
20260901060103 70 213 2.0 5.0 0.00 0.00 0.00 64 1013.4
20260901055541 70 238 3.0 5.0 0.00 0.00 0.00 65 1013.5
20260901055041 70 205 3.0 7.0 0.00 0.00 0.00 66 1013.5
20260901054600 71 216 3.0 7.0 0.00 0.00 0.00 65 1013.5
20260901054044 71 203 3.0 6.0 0.00 0.00 0.00 64 1013.4
20260901053542 71 208 3.0 5.0 0.00 0.00 0.00 64 1013.5
20260901053106 71 221 3.0 7.0 0.00 0.00 0.00 64 1013.4
20260901052542 71 237 4.0 7.0 0.00 0.00 0.00 64 1013.5
20260901052041 71 215 4.0 9.0 0.00 0.00 0.00 63 1013.5
20260901051606 71 214 5.0 9.0 0.00 0.00 0.00 63 1013.4
20260901051041 71 229 5.0 9.0 0.00 0.00 0.00 64 1013.5
20260901050544 71 205 4.0 9.0 0.00 0.00 0.00 65 1013.4
20260901050059 70 216 4.0 6.0 0.00 0.00 0.00 65 1013.3
20260901045542 70 208 3.0 6.0 0.00 0.00 0.00 67 1013.3
20260901045044 70 207 2.0 5.0 0.00 0.00 0.00 67 1013.3
20260901044606 70 225 3.0 5.0 0.00 0.00 0.00 67 1013.3
20260901044042 70 227 3.0 7.0 0.00 0.00 0.00 67 1013.4
20260901043542 70 219 4.0 7.0 0.00 0.00 0.00 67 1013.3
20260901043053 70 237 3.0 6.0 0.00 0.00 0.00 67 1013.3
20260901042541 70 211 2.0 4.0 0.00 0.00 0.00 67 1013.2
20260901042042 70 218 2.0 4.0 0.00 0.00 0.00 69 1013.2
20260901041621 70 190 1.0 5.0 0.00 0.00 0.00 68 1013.3
20260901041045 70 205 2.0 5.0 0.00 0.00 0.00 68 1013.2
20260901040541 70 181 3.0 5.0 0.00 0.00 0.00 68 1013.3
20260901040136 70 179 2.0 5.0 0.00 0.00 0.00 69 1013.2
20260901035543 70 200 2.0 5.0 0.00 0.00 0.00 68 1013.2
20260901035041 70 201 3.0 5.0 0.00 0.00 0.00 69 1013.2
20260901034556 70 201 2.0 5.0 0.00 0.00 0.00 70 1013.2
20260901034042 70 184 2.0 3.0 0.00 0.00 0.00 71 1013.2
20260901033544 70 183 2.0 4.0 0.00 0.00 0.00 71 1013.2
20260901033059 70 174 2.0 4.0 0.00 0.00 0.00 72 1013.1
20260901032540 70 160 2.0 4.0 0.00 0.00 0.00 73 1013.1
20260901032044 69 190 2.0 4.0 0.00 0.00 0.00 75 1013.1
20260901031602 69 201 1.0 4.0 0.00 0.00 0.00 76 1013.1
20260901031041 68 186 2.0 4.0 0.00 0.00 0.00 78 1013.1
20260901030542 67 190 1.0 2.0 0.00 0.00 0.00 79 1013.1
20260901030110 67 191 1.0 2.0 0.00 0.00 0.00 81 1013.1
20260901025541 67 182 1.0 2.0 0.00 0.00 0.00 82 1013.0
20260901025041 67 172 0.0 2.0 0.00 0.00 0.00 81 1012.9
20260901024607 67 172 0.0 2.0 0.00 0.00 0.00 81 1012.8
20260901024041 67 172 0.0 3.0 0.00 0.00 0.00 80 1012.8
20260901023541 67 167 0.0 3.0 0.00 0.00 0.00 81 1012.8
20260901023105 68 167 0.0 3.0 0.00 0.00 0.00 81 1012.8
20260901022541 68 167 0.0 3.0 0.00 0.00 0.00 79 1012.8
20260901022041 68 167 0.0 2.0 0.00 0.00 0.00 80 1012.7
20260901021601 68 0 0.0 2.0 0.00 0.00 0.00 82 1012.7
20260901021041 68 0 0.0 2.0 0.00 0.00 0.00 82 1012.7
20260901020543 69 157 0.0 2.0 0.00 0.00 0.00 81 1012.5
20260901020100 69 157 0.0 2.0 0.00 0.00 0.00 80 1012.4
20260901015542 69 157 0.0 2.0 0.00 0.01 0.00 80 1012.5
20260901015042 69 0 0.0 2.0 0.00 0.01 0.00 80 1012.3
20260901014557 69 0 0.0 2.0 0.00 0.01 0.00 80 1012.5
20260901014042 70 0 0.0 2.0 0.00 0.01 0.00 79 1012.6
20260901013542 70 0 0.0 0.0 0.00 0.01 0.00 79 1012.4
20260901013103 71 0 0.0 0.0 0.00 0.01 0.00 77 1012.3
20260901012542 71 0 0.0 0.0 0.00 0.01 0.00 78 1012.2
20260901012041 71 0 0.0 2.0 0.00 0.01 0.00 77 1012.2
20260901011559 72 0 0.0 2.0 0.00 0.01 0.00 76 1012.1
20260901011041 72 157 0.0 2.0 0.00 0.01 0.00 72 1012.2
20260901010542 73 0 0.0 0.0 0.00 0.01 0.00 75 1012.1
20260901010116 73 0 0.0 2.0 0.00 0.01 0.00 76 1012.2
20260901005542 74 0 0.0 2.0 0.00 0.01 0.00 74 1012.2
20260901005040 74 0 0.0 2.0 0.00 0.01 0.00 70 1012.0
20260901004600 75 157 0.0 2.0 0.00 0.01 0.00 67 1012.1
20260901004042 76 0 0.0 2.0 0.00 0.01 0.00 69 1012.1
20260901003542 77 157 1.0 2.0 0.00 0.01 0.00 65 1012.1
20260901003054 77 148 1.0 2.0 0.00 0.01 0.00 63 1012.2
20260901002542 78 146 1.0 2.0 0.00 0.01 0.00 62 1012.1
20260901002041 78 130 1.0 2.0 0.00 0.01 0.00 62 1012.3
20260901001558 79 73 0.0 2.0 0.00 0.01 0.00 62 1012.2
20260901001044 80 73 0.0 2.0 0.00 0.01 0.00 61 1012.2
20260901000541 80 73 0.0 1.0 0.00 0.01 0.00 59 1012.2
20260901000104 81 73 0.0 1.0 0.00 0.01 0.00 58 1012.2
20260831235541 81 73 0.0 2.0 0.00 0.01 0.00 58 1012.1
20260831235042 82 73 1.0 2.0 0.00 0.01 0.00 51 1012.2
20260831234556 82 0 0.0 2.0 0.00 0.01 0.00 53 1012.1
20260831234042 82 68 0.0 2.0 0.00 0.01 0.00 50 1012.2
20260831233541 82 68 0.0 2.0 0.00 0.01 0.00 50 1012.2
20260831233118 82 67 1.0 2.0 0.00 0.01 0.00 50 1012.2
20260831232541 82 64 1.0 2.0 0.00 0.01 0.00 50 1012.1
20260831232042 82 84 0.0 2.0 0.00 0.01 0.00 49 1012.1
20260831231600 82 36 1.0 2.0 0.00 0.01 0.00 50 1012.1
20260831231045 82 59 1.0 2.0 0.00 0.01 0.00 49 1012.1
20260831230540 82 57 1.0 3.0 0.00 0.01 0.00 49 1012.1
20260831230113 82 63 2.0 3.0 0.00 0.01 0.00 47 1011.9
20260831225542 82 55 1.0 2.0 0.00 0.01 0.00 49 1011.9
20260831225041 82 61 1.0 2.0 0.00 0.01 0.00 47 1012.0
20260831224606 83 55 1.0 2.0 0.00 0.01 0.00 46 1012.0
20260831224042 83 348 1.0 2.0 0.00 0.01 0.00 45 1012.0
20260831223544 83 13 0.0 2.0 0.00 0.01 0.00 47 1012.0
20260831223110 82 36 1.0 2.0 0.00 0.01 0.00 46 1012.1
20260831222541 82 350 1.0 1.0 0.00 0.01 0.00 44 1012.2
20260831222042 83 347 1.0 1.0 0.00 0.01 0.00 45 1012.1
20260831221603 82 331 0.0 2.0 0.00 0.01 0.00 45 1012.1
20260831221041 82 331 1.0 2.0 0.00 0.01 0.00 44 1011.9
20260831220541 82 349 1.0 2.0 0.00 0.01 0.00 44 1011.9
20260831220100 82 349 1.0 2.0 0.00 0.01 0.00 48 1011.8
20260831215542 82 347 1.0 2.0 0.00 0.01 0.00 46 1011.9
20260831215040 82 15 0.0 2.0 0.00 0.01 0.00 46 1012.0
20260831214607 82 352 1.0 1.0 0.00 0.01 0.00 46 1011.9
20260831214042 82 346 1.0 1.0 0.00 0.01 0.00 46 1011.9
20260831213543 82 340 0.0 2.0 0.00 0.01 0.00 47 1012.0
20260831213106 82 341 1.0 3.0 0.00 0.01 0.00 48 1012.1
20260831212542 81 360 1.0 3.0 0.00 0.01 0.00 49 1011.9
20260831212042 81 350 1.0 2.0 0.00 0.01 0.00 50 1012.0
20260831211601 81 352 1.0 3.0 0.00 0.01 0.00 52 1012.0
20260831211042 80 13 1.0 3.0 0.00 0.01 0.00 52 1012.0
20260831210541 80 352 1.0 2.0 0.00 0.01 0.00 51 1011.9
20260831210056 80 343 1.0 2.0 0.00 0.01 0.00 52 1012.0
20260831205541 80 337 1.0 2.0 0.00 0.01 0.00 53 1012.1
20260831205042 80 342 1.0 2.0 0.00 0.01 0.00 53 1012.2
20260831204552 79 350 1.0 2.0 0.00 0.01 0.00 55 1012.1
20260831204041 79 11 1.0 2.0 0.00 0.01 0.00 55 1012.1
20260831203541 78 5 1.0 3.0 0.00 0.01 0.00 58 1012.1
20260831203115 78 5 1.0 3.0 0.00 0.01 0.00 61 1012.2
20260831202542 78 17 2.0 3.0 0.00 0.01 0.00 61 1012.1
20260831202041 78 19 1.0 2.0 0.00 0.01 0.00 62 1012.2
20260831201604 78 11 2.0 3.0 0.00 0.01 0.00 62 1012.1
20260831201042 78 18 1.0 4.0 0.00 0.01 0.00 67 1012.1
20260831200542 77 336 2.0 4.0 0.00 0.01 0.00 68 1012.0
20260831200110 77 9 3.0 4.0 0.00 0.01 0.00 67 1012.0
20260831195542 77 15 2.0 3.0 0.00 0.01 0.00 68 1011.9
20260831195041 77 9 2.0 3.0 0.00 0.01 0.00 67 1011.9
20260831194640 77 337 1.0 3.0 0.00 0.01 0.00 70 1012.0
20260831194042 77 11 1.0 3.0 0.00 0.01 0.00 69 1011.9
20260831193542 77 360 2.0 4.0 0.00 0.01 0.00 70 1011.9
20260831193102 77 5 2.0 4.0 0.00 0.01 0.00 68 1011.9
20260831192541 78 5 2.0 4.0 0.00 0.01 0.00 66 1011.8
20260831192042 78 9 2.0 4.0 0.00 0.01 0.00 66 1011.9
20260831191558 79 38 1.0 2.0 0.00 0.01 0.00 65 1011.8
20260831191045 79 264 1.0 2.0 0.00 0.01 0.00 67 1012.0
20260831190541 79 290 0.0 2.0 0.00 0.01 0.00 68 1011.9
20260831190109 78 330 1.0 4.0 0.00 0.01 0.00 69 1011.9
20260831185543 78 290 1.0 4.0 0.00 0.01 0.00 70 1011.9
20260831185042 77 264 2.0 3.0 0.00 0.01 0.00 69 1012.0
20260831184559 78 261 1.0 3.0 0.00 0.01 0.00 68 1012.0
20260831184042 78 273 1.0 3.0 0.00 0.01 0.00 69 1012.0
20260831183542 78 299 1.0 4.0 0.00 0.01 0.00 68 1011.9
20260831183110 78 274 1.0 4.0 0.00 0.01 0.00 69 1012.0
20260831182542 78 287 2.0 4.0 0.00 0.01 0.00 67 1011.9
20260831182045 79 343 1.0 3.0 0.00 0.01 0.00 69 1011.8
20260831181610 78 316 1.0 3.0 0.00 0.01 0.00 70 1011.8
20260831181041 78 146 1.0 3.0 0.00 0.01 0.00 71 1011.8
20260831180542 77 39 0.0 4.0 0.00 0.01 0.00 72 1011.8
20260831180114 77 284 2.0 4.0 0.00 0.01 0.00 72 1011.8
20260831175542 77 252 2.0 4.0 0.00 0.01 0.00 71 1011.8
20260831175046 78 306 1.0 5.0 0.00 0.01 0.00 70 1011.9
20260831174603 78 255 2.0 5.0 0.00 0.01 0.00 72 1011.9
20260831174042 79 298 1.0 2.0 0.00 0.01 0.00 73 1011.8
20260831173545 79 307 0.0 2.0 0.00 0.01 0.00 74 1011.9
20260831173101 79 288 0.0 2.0 0.00 0.01 0.00 74 1011.8
20260831172541 78 0 0.0 2.0 0.00 0.01 0.00 74 1011.7
20260831172041 78 281 0.0 2.0 0.00 0.01 0.00 78 1011.7
20260831171601 77 5 0.0 3.0 0.00 0.01 0.00 78 1011.9
20260831171041 76 269 0.0 4.0 0.00 0.01 0.00 80 1011.9
20260831170542 75 273 2.0 5.0 0.00 0.01 0.00 80 1011.8
20260831170059 76 262 3.0 5.0 0.00 0.01 0.00 79 1011.8
20260831165544 76 280 2.0 5.0 0.00 0.01 0.00 80 1011.7
20260831165042 76 316 2.0 4.0 0.00 0.01 0.00 80 1011.7
20260831164604 76 293 1.0 3.0 0.00 0.01 0.00 80 1011.7
20260831164042 76 286 2.0 5.0 0.00 0.01 0.00 81 1011.6
20260831163542 76 289 2.0 5.0 0.00 0.01 0.00 80 1011.3
20260831163103 75 240 2.0 4.0 0.00 0.01 0.00 80 1011.3
20260831162542 75 287 2.0 4.0 0.00 0.01 0.00 80 1011.5
20260831162039 75 282 1.0 4.0 0.00 0.01 0.00 82 1011.3
20260831161605 75 269 2.0 4.0 0.00 0.01 0.00 82 1011.3
20260831161039 75 268 3.0 7.0 0.00 0.01 0.00 81 1011.4
20260831160542 75 263 3.0 7.0 0.00 0.01 0.00 82 1011.4
20260831160059 75 320 3.0 7.0 0.00 0.01 0.00 82 1011.4
20260831155542 74 286 3.0 7.0 0.00 0.01 0.00 83 1011.3
20260831155042 74 307 3.0 6.0 0.00 0.01 0.00 83 1011.4
20260831154628 74 296 3.0 7.0 0.00 0.01 0.00 83 1011.3
20260831154043 75 284 3.0 7.0 0.00 0.01 0.00 83 1011.4
20260831153544 75 284 3.0 6.0 0.00 0.01 0.00 83 1011.2
20260831153106 75 243 2.0 6.0 0.00 0.01 0.00 84 1011.0
20260831152540 74 257 2.0 5.0 0.00 0.01 0.00 84 1011.0
20260831152041 74 265 2.0 5.0 0.00 0.01 0.00 85 1011.1
20260831151620 74 266 2.0 4.0 0.00 0.01 0.00 86 1011.0
20260831151042 74 261 1.0 3.0 0.00 0.01 0.00 86 1010.8
20260831150542 74 311 1.0 4.0 0.00 0.01 0.00 87 1010.6
20260831150104 74 279 2.0 6.0 0.00 0.01 0.00 87 1010.6
20260831145542 74 262 2.0 6.0 0.00 0.01 0.00 87 1010.6
20260831145042 74 263 2.0 4.0 0.00 0.01 0.00 88 1010.4
20260831144605 74 256 3.0 4.0 0.00 0.01 0.00 88 1010.6
20260831144042 73 264 2.0 4.0 0.00 0.01 0.00 89 1010.4
20260831143543 73 250 2.0 7.0 0.00 0.01 0.00 89 1010.4
20260831143101 73 271 3.0 9.0 0.00 0.01 0.00 90 1010.4
20260831142542 73 262 4.0 9.0 0.00 0.01 0.00 90 1010.4
20260831142042 73 261 6.0 9.0 0.00 0.01 0.00 90 1010.4
20260831141602 73 261 4.0 8.0 0.00 0.01 0.00 90 1010.3
20260831141045 73 249 3.0 8.0 0.00 0.01 0.00 90 1010.2
20260831140543 72 248 4.0 9.0 0.00 0.01 0.00 91 1009.9
20260831140106 72 256 4.0 9.0 0.00 0.01 0.00 91 1010.0
20260831135542 72 267 4.0 7.0 0.00 0.01 0.00 91 1010.1
20260831135046 72 248 4.0 7.0 0.00 0.01 0.00 91 1010.1
20260831134603 72 259 5.0 9.0 0.00 0.01 0.00 91 1010.0
20260831134041 72 222 3.0 10.0 0.00 0.01 0.00 91 1010.0
20260831133541 72 245 5.0 10.0 0.00 0.01 0.00 92 1010.0
20260831133104 72 244 4.0 10.0 0.00 0.01 0.00 92 1009.9
20260831132544 72 218 4.0 8.0 0.00 0.01 0.00 92 1009.8
20260831132044 71 243 3.0 7.0 0.00 0.01 0.00 92 1009.5
20260831131613 71 245 4.0 5.0 0.00 0.01 0.00 93 1009.3
20260831131042 71 221 3.0 5.0 0.00 0.01 0.00 93 1009.3
20260831130542 71 254 2.0 4.0 0.00 0.01 0.00 94 1009.1
20260831130112 71 246 1.0 2.0 0.00 0.01 0.00 94 1008.9
20260831125542 70 225 1.0 2.0 0.00 0.01 0.00 93 1008.8
20260831125042 70 202 1.0 2.0 0.00 0.01 0.00 93 1008.8
20260831124609 70 178 1.0 2.0 0.00 0.01 0.00 93 1009.0
20260831124041 70 182 1.0 2.0 0.00 0.01 0.00 93 1008.8
20260831123541 70 142 0.0 2.0 0.00 0.01 0.00 93 1008.7
20260831123104 70 148 1.0 2.0 0.00 0.01 0.00 93 1008.5
20260831122545 70 196 1.0 3.0 0.00 0.01 0.00 93 1008.7
20260831122043 70 196 1.0 3.0 0.00 0.01 0.00 93 1008.6
20260831121603 70 170 1.0 3.0 0.00 0.01 0.00 93 1008.8
20260831121042 70 143 0.0 2.0 0.00 0.01 0.00 93 1008.6
20260831120543 70 0 0.0 2.0 0.00 0.01 0.00 93 1008.6
20260831120057 70 175 0.0 2.0 0.00 0.01 0.00 93 1008.6
20260831115541 70 168 1.0 2.0 0.00 0.01 0.00 93 1008.5
20260831115042 70 112 0.0 2.0 0.00 0.01 0.00 92 1008.6
20260831114603 70 145 0.0 1.0 0.00 0.01 0.00 92 1008.4
20260831114042 70 0 0.0 2.0 0.00 0.01 0.00 92 1008.5
20260831113542 70 0 0.0 2.0 0.00 0.01 0.00 92 1008.4
20260831113105 70 153 0.0 2.0 0.00 0.01 0.00 92 1008.4
20260831112541 70 153 0.0 2.0 0.00 0.01 0.00 92 1008.2
20260831112045 70 122 0.0 2.0 0.00 0.01 0.00 92 1008.1
20260831111557 70 157 0.0 2.0 0.00 0.01 0.00 92 1008.1
20260831111042 70 140 1.0 2.0 0.00 0.01 0.00 92 1008.1